Regional Weather Roundup
Issued by NWS Huntsville, AL

Home | Current Version | Previous Version | Text Only | Print | Product List | Glossary On
Versions: 1 2 3 4 5 6 7 8 9 10 11 12 13 14 15 16 17 18 19 20 21 22 23 24 25 26 27 28 29 30 31 32 33 34 35 36 37 38 39 40 41 42 43 44 45 46 47 48 49 50
000
ASUS44 KHUN 251510
RWRHUN

WEATHER ROUNDUP FOR THE TENNESSEE VALLEY
NATIONAL WEATHER SERVICE HUNTSVILLE AL
1000 AM CDT SAT APR 25 2015

ALZ001>004-251600-
NORTHWEST ALABAMA

CITY           SKY/WX    TMP DP  RH WIND       PRES   REMARKS
SHOALS AIRPORT PTSUNNY   71  63  75 W9        29.71F
SHOALS TVA RES   N/A     66 N/A N/A MISG        N/A
$$

ALZ005>007-016-251600-
NORTH CENTRAL ALABAMA

CITY           SKY/WX    TMP DP  RH WIND       PRES   REMARKS
DECATUR AP     MOSUNNY   68  64  87 SW12      29.74S
HUNTSVILLE AP  PTSUNNY   70  62  76 S8        29.74S
HUN NWS/UAH      N/A     70  60  71 SW7         N/A
MERIDIANVILLE  PTSUNNY   68  59  73 S14       29.74S
REDSTONE ARSN  PTSUNNY   68  62  83 S9        29.73F
VINEMONT AP    FAIR      65  62  88 SW8       29.78R
$$

ALZ008>010-251600-
NORTHEAST ALABAMA

CITY           SKY/WX    TMP DP  RH WIND       PRES   REMARKS
ALBERTVILLE    PTSUNNY   63  63 100 S5        29.77R
FORT PAYNE     MOSUNNY   64  57  77 S3        29.76F
SCOTTSBORO AP  PTSUNNY   66  63  88 SW7       29.76S
SCOTTSBORO HCN   N/A     66 N/A N/A MISG        N/A
VALLEY HEAD      N/A     64 N/A N/A MISG        N/A
$$

TNZ076-096-097-251600-
SOUTHEASTERN MIDDLE TENNESSEE

CITY           SKY/WX    TMP DP  RH WIND       PRES   REMARKS
TULLAHOMA      SUNNY     66  61  82 S13       29.72S
WINCHESTER     SUNNY     70  63  78 S15       29.73F
$$

...SURROUNDING SITES...

CITY           SKY/WX    TMP DP  RH WIND       PRES   REMARKS
ATLANTA        CLOUDY    63  59  87 SE8       29.80F
ANNISTON       PTSUNNY   67  61  81 E3        29.79S
BIRMINGHAM     CLOUDY    69  65  86 S8        29.80S
CHATTANOOGA    CLOUDY    61  58  90 S10       29.77F FOG
CORINTH        PTSUNNY   68  61  77 SW15G21   29.69S
DALTON         CLOUDY    63  63 100 S5        29.78S
GADSDEN        CLOUDY    61  57  88 CALM      29.77R
GOLDEN TRNGL   PTSUNNY   70  64  83 S9        29.76R
HALEYVILLE       N/A     67  64  90 SW8       29.77F
JACKSON TN     CLOUDY    69  62  78 SW14G23   29.65F
MEMPHIS        CLOUDY    67  63  87 SW13G26   29.66S
NASHVILLE      CLOUDY    66  60  81 S9        29.70F
OXFORD MS      CLOUDY    64  61  88 SW8       29.72F
ROME           CLOUDY    62  60  93 S5        29.77F
SAVANNAH       SUNNY     66  32  28 SW9       29.70S
TUPELO         CLOUDY    65  61  87 SW6       29.72S
TUSCALOOSA     PTSUNNY   72  66  81 S9        29.76S
$$

...GULF COAST WEATHER...

CITY           SKY/WX    TMP DP  RH WIND       PRES   REMARKS
GULFPORT       PTSUNNY   79  75  87 SW10      29.79F
PASCAGOULA     CLOUDY    78  76  93 SW8       29.80F
MOBILE         PTSUNNY   80  74  81 SW12G23   29.80F
GULF SHORES    CLOUDY    79  75  88 SW14G20   29.82F
PENSACOLA      CLOUDY    79  75  87 SW16G22   29.81F
DESTIN         CLOUDY    78  75  90 VRB5      29.85F
PANAMA CITY    CLOUDY    76  75  94 S7        29.89S
APPALACHICOLA  PTSUNNY   82  75  79 SW12      29.91S
$$



USA.gov is the U.S. government's official web portal to all federal, state and local government web resources and services.